Lapse_Rate
4.4 4.8 5.1 5.3 5.4 5.8 6.5 7.0 7.5 7.4 7.8 7.6 8.1 6.6 7.2 7.8 7.6 7.7 8.1 8.0 7.6 6.9 7.6 7.8 7.5 7.3 7.3 7.1 7.2 6.7 6.7 6.5 6.8 6.9 6.7 6.8 7.2 7.6 7.6 6.9 6.3 6.1 5.9 6.4
4.0 4.9 5.0 4.8 5.2 6.1 6.9 7.3 7.6 8.3 7.6 7.8 7.3 7.6 7.9 7.8 7.5 7.7 8.0 7.5 7.6 7.5 7.7 7.9 7.8 7.4 7.4 7.4 7.1 7.3 7.1 6.9 6.9 6.8 6.8 6.8 6.5 6.8 7.3 7.3 6.5 6.1 6.1 5.8
4.6 5.3 5.9 5.3 6.2 7.2 7.9 8.3 8.2 8.4 7.6 7.4 8.0 8.2 8.1 7.7 7.4 7.6 7.6 7.5 7.1 7.6 7.7 7.7 7.6 7.8 7.5 7.2 7.2 7.2 7.2 6.7 6.6 6.7 6.5 6.6 6.6 6.6 7.0 6.7 6.1 5.9 6.0 5.9
6.5 6.6 6.4 6.6 7.3 8.6 8.8 8.3 8.6 8.5 8.3 8.0 7.7 7.2 7.8 7.4 7.3 7.4 7.3 7.4 7.2 7.5 7.5 7.3 7.3 7.4 7.7 7.8 7.6 7.4 7.3 6.9 6.2 6.2 6.2 6.4 6.2 6.2 6.2 6.0 5.7 5.5 5.8 5.9
6.9 7.5 7.9 8.1 8.6 8.3 8.2 8.3 8.1 8.1 7.8 7.5 7.2 6.9 7.3 7.2 7.2 7.4 6.8 7.4 7.4 7.3 7.1 7.3 7.3 7.3 7.3 7.7 7.4 7.3 6.8 6.4 5.5 5.7 6.0 6.0 5.7 5.7 5.5 5.2 5.1 5.3 5.3 5.2
7.6 8.1 8.6 8.6 8.5 7.5 7.9 8.0 7.9 7.0 7.3 7.0 6.9 6.7 7.1 7.1 7.2 7.2 7.3 7.4 7.4 7.3 7.2 7.2 7.2 7.2 7.6 7.3 7.2 7.3 7.0 6.5 5.7 5.7 5.7 5.7 5.4 5.3 5.1 5.1 5.2 5.1 5.1 5.0
8.1 8.1 8.3 7.8 7.9 8.3 8.2 8.0 7.8 7.3 7.2 6.9 7.1 7.0 6.9 7.2 7.3 7.0 7.2 7.3 7.7 7.7 7.6 7.1 7.3 7.4 7.0 7.5 7.2 7.2 7.3 6.7 6.3 6.0 5.7 5.4 5.4 5.5 5.4 5.3 5.3 5.4 5.4 5.6
8.6 8.5 8.3 8.5 8.2 8.1 7.7 8.1 7.4 7.2 6.9 6.7 6.8 6.9 6.8 6.8 7.0 7.0 7.8 7.7 7.3 7.4 7.4 7.3 7.0 7.1 7.1 7.2 6.9 6.9 7.1 7.2 6.4 6.1 5.8 5.6 5.4 5.5 5.5 5.4 5.6 5.9 5.9 5.8
8.5 8.6 8.8 8.8 8.2 7.8 7.1 7.1 7.3 7.1 6.8 6.7 6.7 6.7 6.9 7.1 7.1 6.8 7.1 7.7 7.8 7.6 7.4 7.2 7.0 7.0 6.9 6.9 6.8 6.7 6.8 7.1 7.1 6.8 6.3 5.9 5.5 5.5 5.8 5.8 6.1 6.3 6.4 6.1
8.6 8.5 9.0 8.2 7.7 7.3 7.4 7.1 7.0 6.8 6.6 6.4 6.5 6.8 7.0 7.1 7.0 7.1 7.2 7.2 7.3 7.3 7.1 6.9 7.0 6.9 6.9 6.9 6.8 6.7 6.6 6.7 6.9 7.2 6.7 6.4 6.0 5.8 5.9 6.1 6.2 6.5 6.5 6.1
8.3 8.3 7.7 7.2 7.4 7.4 7.2 6.9 6.7 6.5 6.4 6.3 6.7 6.8 6.9 7.0 7.0 7.0 7.1 7.1 7.1 7.3 7.2 7.2 7.2 7.0 7.0 6.8 6.7 6.7 6.6 6.6 6.7 6.6 7.1 6.7 6.5 6.5 6.2 6.2 6.3 6.5 6.2 6.0
7.5 7.3 7.2 7.5 7.1 7.0 7.1 6.8 6.7 6.6 6.5 6.4 6.6 6.7 6.7 6.8 6.9 6.9 6.9 6.9 7.0 7.2 7.3 7.2 7.1 7.1 7.2 7.3 6.8 6.6 6.7 6.6 6.6 6.7 6.5 6.6 6.8 6.7 6.5 6.4 6.4 6.2 6.1 6.1
7.2 7.1 7.1 6.9 6.9 7.0 7.0 7.0 7.1 6.9 6.9 6.9 6.9 7.0 7.0 7.1 7.1 7.1 7.1 7.3 7.5 7.4 7.3 7.2 7.1 7.1 7.0 7.4 7.3 7.1 6.9 6.6 6.6 6.3 6.4 6.6 6.7 6.7 6.4 6.4 6.5 6.3 6.2 6.1
7.1 6.8 7.0 7.0 7.0 6.9 7.0 6.9 6.9 6.6 6.8 6.9 7.0 7.1 7.1 7.2 7.2 7.2 7.3 7.3 7.4 7.3 7.3 7.3 7.2 7.1 7.1 7.4 7.5 7.3 7.3 7.0 6.6 6.3 6.5 6.4 6.4 6.7 6.3 6.4 6.5 6.4 6.3 6.3
6.9 6.9 6.9 6.9 7.1 7.1 7.0 7.0 6.9 6.9 6.9 6.9 7.1 7.1 7.3 7.4 7.5 7.5 7.3 7.2 7.3 7.3 7.3 7.3 7.3 7.3 6.9 7.1 7.4 7.4 7.3 7.3 6.9 6.6 6.5 6.5 6.5 6.6 6.5 6.4 6.3 6.5 6.7 6.4
7.0 7.1 7.2 7.2 7.2 7.2 7.1 7.1 7.0 7.1 7.1 7.1 7.2 7.3 7.4 7.5 7.5 7.5 7.4 7.3 7.3 7.4 7.4 7.3 7.3 7.1 7.3 7.2 6.6 6.5 6.8 7.3 7.0 6.8 6.6 6.6 6.5 6.4 6.4 6.4 6.3 6.5 6.5 6.3
7.4 7.4 7.2 7.2 7.2 7.2 7.3 7.2 7.2 7.1 7.2 7.2 7.3 7.5 7.5 7.5 7.5 7.4 7.5 7.4 7.3 7.2 7.2 7.2 7.2 7.2 7.0 6.6 6.4 6.3 6.3 6.8 6.8 6.3 6.4 6.5 6.6 6.7 6.3 6.4 6.3 6.3 6.3 6.2
7.3 7.3 7.1 7.0 7.1 7.1 6.9 7.0 7.1 7.1 7.3 7.3 7.4 7.4 7.4 7.5 7.6 7.5 7.5 7.5 7.5 7.3 7.3 7.2 7.1 7.0 6.9 6.7 6.6 6.6 6.8 6.8 6.6 6.3 6.5 6.2 6.2 6.0 5.9 6.1 6.1 5.9 6.1 6.1
7.0 7.0 7.0 6.9 6.9 7.0 7.0 7.0 7.2 7.2 7.3 7.3 7.4 7.5 7.5 7.4 7.5 7.5 7.4 7.4 7.4 7.4 7.5 7.5 7.2 7.0 7.0 6.8 6.8 6.9 6.9 6.6 6.6 6.5 6.2 6.1 6.1 6.1 6.0 5.8 5.7 6.1 6.2 6.1
6.9 7.0 7.2 7.1 7.0 7.0 7.1 7.1 7.2 7.2 7.3 7.3 7.4 7.4 7.4 7.4 7.4 7.4 7.4 7.3 7.2 7.2 7.2 7.3 7.4 7.1 6.9 6.8 6.7 6.7 6.6 6.5 6.3 6.3 6.2 6.1 5.9 5.9 5.8 6.0 6.2 6.2 6.0 6.0
6.9 7.1 7.2 7.3 7.4 7.4 7.3 7.3 7.3 7.2 7.2 7.2 7.2 7.2 7.2 7.2 7.2 7.1 7.2 7.3 7.2 7.0 7.0 7.1 7.3 7.2 6.9 6.8 6.6 6.5 6.5 6.3 6.2 6.1 6.0 6.0 6.0 5.9 6.0 6.1 6.2 6.0 5.9 6.0
7.1 7.1 7.1 7.3 7.3 7.3 7.3 7.3 7.5 7.4 7.2 7.1 7.0 7.1 7.1 7.0 7.0 7.0 6.9 6.9 7.0 7.0 6.9 7.0 7.1 7.1 7.0 6.8 6.7 6.6 6.5 6.4 6.2 6.1 6.0 6.0 6.0 5.9 5.9 6.1 6.1 5.9 6.0 6.0
7.4 7.4 7.3 7.2 7.3 7.4 7.2 7.1 7.3 7.2 7.0 7.2 7.0 7.1 7.0 7.0 7.1 7.1 7.2 7.0 6.8 6.8 6.8 6.7 6.8 6.9 6.9 6.9 6.8 6.6 6.5 6.5 6.3 6.2 6.1 6.1 6.0 6.0 6.1 6.1 6.2 6.0 6.0 6.1
7.1 6.9 6.8 6.8 6.8 6.8 6.8 6.5 7.0 7.1 6.8 6.8 6.8 7.2 7.0 7.1 7.1 7.0 7.1 7.1 7.1 6.9 6.9 6.7 6.6 6.7 6.7 6.9 6.9 6.7 6.6 6.5 6.5 6.4 6.3 6.3 6.3 6.2 6.2 6.2 6.2 6.1 6.0 6.0
6.7 6.7 6.7 6.6 6.6 6.6 6.5 6.5 6.6 6.7 6.9 7.0 6.8 6.9 7.0 7.0 7.0 7.2 7.1 7.1 7.2 7.1 7.0 6.9 6.9 6.7 6.6 6.6 6.8 6.8 6.6 6.4 6.3 6.4 6.4 6.4 6.3 6.3 6.3 6.2 6.2 6.1 6.0 6.0
6.5 6.5 6.5 6.5 6.4 6.3 6.2 6.1 6.3 6.5 6.4 6.6 6.6 6.6 6.8 6.8 6.8 6.8 6.9 7.0 6.9 7.1 7.2 7.1 7.1 7.1 6.9 6.7 6.6 6.7 6.6 6.5 6.4 6.3 6.3 6.3 6.3 6.3 6.2 6.2 6.2 6.2 6.1 6.0
6.2 6.1 5.8 5.9 5.8 5.4 5.3 5.7 6.0 6.0 5.8 5.9 6.0 6.2 6.3 6.4 6.6 6.6 6.8 6.8 7.0 7.0 7.0 7.2 7.1 7.1 7.2 7.1 7.1 6.9 6.7 6.6 6.4 6.2 6.2 6.2 6.3 6.3 6.3 6.3 6.1 6.1 6.0 6.0
Wind_Speed
18 18 17 19 19 18 19 20 20 22 26 22 17 16 20 22 22 22 23 23 12 11 7 7 10 6 3 1 5 6 6 6 9 10 9 9 11 13 13 15 14 15 15 13
18 16 16 20 19 21 22 24 24 19 17 17 19 20 21 23 24 25 22 20 10 8 9 8 12 11 9 4 5 2 6 6 5 7 9 10 11 12 15 14 16 17 16 17
17 16 17 16 13 20 24 16 16 12 14 19 20 22 22 23 24 22 17 9 8 9 8 6 6 9 9 7 4 3 3 4 7 8 10 10 10 13 13 15 15 15 15 16
13 16 17 15 20 21 9 11 13 12 15 17 18 20 24 21 18 14 10 10 8 6 8 7 6 8 6 5 4 1 2 4 5 8 9 10 11 12 12 13 14 14 13 14
13 15 19 24 19 6 11 15 13 13 17 19 22 21 20 14 18 18 8 13 10 8 6 4 5 8 5 3 3 2 4 4 4 7 10 12 11 12 11 11 10 11 12 12
13 15 17 19 13 7 13 12 13 11 14 16 19 12 13 18 24 25 7 11 5 15 13 4 5 5 5 2 2 1 3 4 5 6 9 11 12 13 10 11 11 10 11 11
12 10 11 5 14 11 5 8 17 13 13 19 14 9 17 24 23 15 12 17 9 9 6 6 4 4 5 5 2 2 5 6 6 6 7 8 10 11 11 11 11 10 11 11
10 12 10 12 8 3 5 9 13 14 14 18 18 16 17 19 20 18 18 19 18 10 7 3 4 5 5 5 7 6 6 7 7 7 7 7 11 10 12 11 11 11 13 10
7 8 14 8 5 9 4 5 10 16 19 16 15 18 17 17 18 18 19 17 17 14 10 6 6 5 6 9 9 8 8 7 7 7 9 9 10 9 8 10 10 10 10 9
11 11 12 12 12 10 8 10 15 18 15 13 13 16 18 16 15 15 16 17 18 17 13 9 6 8 4 7 10 9 8 7 7 6 9 10 8 8 7 8 9 10 10 10
12 9 11 10 6 9 13 17 17 15 12 12 13 14 15 16 15 14 15 16 17 16 16 12 14 10 6 5 8 8 9 8 7 6 7 9 9 7 9 9 10 11 10 11
7 13 8 10 10 10 14 16 12 12 13 12 11 13 16 15 15 15 16 16 15 16 16 16 15 7 7 3 6 6 8 7 7 6 6 6 6 9 8 11 13 11 15 12
4 9 10 12 11 12 9 10 10 11 10 10 12 10 14 13 13 15 15 17 17 17 16 15 15 16 8 6 6 8 7 9 7 8 7 7 7 9 9 7 16 19 18 19
5 8 7 6 2 7 8 9 10 10 9 10 11 10 11 11 15 14 15 15 16 16 15 14 13 12 9 3 6 8 9 11 9 8 8 7 7 8 9 10 10 10 14 15
6 4 5 6 5 7 7 8 9 9 9 9 9 11 12 14 14 14 13 15 15 14 13 13 13 13 11 10 7 9 9 8 8 7 8 9 7 8 8 8 9 9 9 11
4 5 3 5 6 8 8 9 10 10 9 9 10 10 12 12 12 13 14 14 14 12 11 9 10 10 11 6 5 4 7 12 9 7 8 9 8 9 9 9 9 9 9 10
3 4 6 6 7 8 9 7 7 6 8 9 11 13 12 13 13 12 13 13 12 10 10 8 10 10 7 2 3 3 4 7 10 6 7 8 9 10 9 9 9 9 9 11
2 2 3 4 5 6 8 6 7 11 10 12 10 9 11 13 12 14 14 12 12 9 9 10 8 7 4 1 2 3 5 6 7 6 7 7 7 8 8 9 10 10 9 11
1 1 3 7 7 6 8 8 9 10 8 9 9 10 8 10 10 12 12 11 11 11 13 12 8 6 4 2 2 2 4 6 5 5 6 8 7 8 8 8 10 10 10 11
3 4 6 6 9 9 9 9 9 8 8 8 7 9 10 10 12 11 10 10 6 5 9 11 8 4 4 2 2 2 3 5 4 5 6 7 7 8 8 10 10 9 10 11
8 7 5 7 7 6 5 4 5 7 9 7 8 7 11 12 9 10 10 8 8 7 9 10 9 4 1 2 1 1 2 3 3 4 6 7 8 8 9 9 9 10 9 9
6 6 4 4 3 6 6 5 7 5 6 6 4 4 8 11 10 10 9 6 8 13 9 8 5 6 4 3 1 2 3 3 3 4 4 5 7 8 9 9 10 10 10 9
6 6 6 2 5 8 9 8 1 5 5 6 5 6 6 5 7 8 9 10 8 10 9 8 8 8 7 3 2 3 3 4 4 5 5 5 6 7 8 8 9 10 10 10
7 7 8 8 8 9 10 6 4 7 6 6 6 3 6 6 5 6 8 12 15 11 9 8 9 8 7 3 3 3 4 4 4 5 5 6 5 6 6 7 8 9 9 10
9 9 9 8 9 7 9 9 8 8 9 10 11 9 11 7 8 9 9 8 11 12 9 9 11 8 4 4 3 3 3 4 5 5 6 6 6 6 6 7 8 8 9 9
8 6 7 8 7 7 7 7 6 7 7 7 7 8 8 7 8 9 9 10 9 10 8 7 7 8 5 4 5 4 3 4 5 5 6 6 6 6 7 7 8 8 8 8
8 6 7 7 6 6 6 7 7 7 8 8 9 9 10 9 9 10 11 9 9 9 8 6 6 8 6 5 5 5 5 5 6 6 6 6 7 7 7 8 8 8 8 8
Wind_Direction
269 280 289 288 286 289 284 280 273 282 275 294 317 345 319 311 313 315 315 296 354 279 337 332 321 346 3 3 115 208 203 184 192 194 184 171 165 157 145 144 135 121 122 117
270 271 276 277 277 271 272 273 276 296 301 302 342 331 321 320 316 305 296 307 311 338 321 350 351 339 317 211 229 304 255 211 190 171 156 162 151 149 137 134 135 136 135 130
267 279 284 280 267 272 275 297 294 319 325 347 334 332 325 314 306 295 278 265 319 339 348 352 319 310 352 3 73 271 234 152 168 165 152 143 140 142 136 142 139 137 133 133
268 276 265 270 269 281 343 291 350 2 347 337 332 325 309 308 286 290 324 325 321 315 328 319 4 45 47 24 18 358 95 110 124 140 138 137 134 136 133 135 134 134 140 140
262 260 277 284 293 0 328 304 51 357 335 332 334 316 306 301 307 307 303 295 291 278 232 287 19 99 76 33 76 43 97 136 132 136 139 144 139 137 132 127 130 134 136 132
247 258 267 272 22 333 315 281 12 349 331 326 315 308 295 315 313 299 258 257 139 273 321 144 60 102 128 165 190 189 158 145 129 130 144 146 140 135 130 130 129 134 127 127
244 254 272 333 334 333 303 330 331 325 332 313 301 279 286 293 287 308 323 313 308 270 265 54 96 33 107 163 173 145 130 115 119 126 127 132 135 136 134 131 130 136 126 131
269 260 282 15 12 17 309 309 312 314 319 301 299 301 302 317 333 338 333 321 317 317 343 358 16 67 52 103 103 126 128 124 122 127 125 134 133 137 134 137 143 136 127 129
283 282 296 326 168 251 21 302 302 320 303 298 313 322 324 330 331 333 330 325 318 330 333 22 79 12 52 114 125 128 142 139 131 136 133 134 134 139 139 139 136 132 134 134
308 295 311 320 312 358 347 304 320 294 296 316 329 332 331 328 323 329 332 333 331 331 330 358 53 105 91 119 133 142 147 151 148 141 148 148 147 147 145 147 148 148 144 143
279 287 290 296 338 315 315 305 297 300 315 317 335 330 332 322 334 335 339 327 322 337 344 348 350 121 108 129 135 147 152 158 160 154 151 155 161 153 155 163 163 163 162 157
281 283 283 293 301 315 291 290 298 322 322 344 351 334 336 336 335 337 333 333 332 337 333 343 349 72 134 140 128 136 148 162 168 163 159 150 141 139 101 156 161 145 150 154
325 354 329 308 305 306 291 318 326 318 324 331 340 340 341 333 334 331 343 344 338 334 331 350 358 358 149 161 154 154 163 168 166 165 166 160 154 148 134 113 150 147 156 156
359 7 328 323 333 319 350 331 326 314 359 357 345 334 342 332 339 341 344 346 343 331 333 345 347 353 358 194 189 169 161 163 171 172 171 165 160 153 145 144 148 148 140 146
302 293 234 285 336 360 348 336 333 344 343 343 345 343 344 337 337 336 343 342 340 337 332 336 331 323 323 297 217 185 158 164 164 163 164 159 151 147 149 146 146 144 142 141
336 347 348 7 8 360 339 343 339 339 341 336 339 352 344 346 330 329 341 345 344 335 326 321 317 320 314 298 161 158 152 153 157 156 158 160 156 152 151 148 147 150 153 150
24 24 10 357 358 350 342 337 327 328 331 341 349 347 338 336 337 340 336 337 333 331 326 328 317 318 312 347 152 144 153 147 147 144 155 156 149 150 152 149 154 157 155 158
78 58 6 317 314 318 311 327 353 353 9 356 344 329 337 341 339 337 337 331 329 336 348 333 320 322 328 36 120 144 148 148 149 152 142 139 143 147 154 152 158 156 150 160
249 299 301 300 303 324 340 347 7 344 354 346 339 335 324 338 335 332 333 329 329 345 345 337 330 328 333 38 118 124 139 142 137 151 147 153 154 152 153 154 156 156 155 161
296 285 276 295 347 354 330 339 337 327 334 334 328 338 341 341 339 332 331 330 315 335 333 337 330 332 331 335 55 98 130 138 141 151 154 153 149 150 150 155 156 158 161 168
333 360 6 342 323 314 300 303 302 310 320 320 328 324 332 336 340 334 331 329 350 336 339 339 346 321 303 281 263 158 132 134 141 149 159 160 150 154 158 162 161 160 162 166
329 316 307 271 301 301 273 267 274 285 281 280 267 292 327 335 336 337 319 350 341 342 340 334 329 335 296 238 237 181 170 156 145 145 153 158 166 165 169 167 162 164 162 170
304 309 306 313 279 296 293 274 237 270 283 284 270 288 297 320 329 328 328 343 333 333 335 325 319 320 314 235 229 201 184 176 169 166 168 165 169 171 171 167 162 165 166 172
309 321 316 298 290 290 297 315 342 334 304 298 284 255 333 340 332 328 327 323 331 330 324 328 321 311 309 272 247 215 198 192 182 179 174 170 165 164 165 164 162 165 165 168
328 319 318 328 319 320 324 332 318 334 336 338 339 342 346 346 331 326 320 321 326 329 323 324 321 302 295 275 257 223 206 193 184 176 173 173 171 166 163 164 167 164 164 168
301 307 312 311 306 308 319 331 333 330 332 324 321 322 321 317 315 313 315 314 321 314 317 320 323 315 289 263 257 227 213 195 182 179 170 170 169 169 168 167 165 169 168 174
308 300 305 310 302 323 339 346 337 338 332 323 315 316 312 309 314 310 307 313 311 313 310 311 312 315 296 271 250 234 215 203 193 186 178 174 175 177 176 175 176 175 173 179